User: anonymous   Login
Location: B?jaj?g
(11.7167°N, 92.6667°E)
Time: 21:14:50
(UTC+00:00)
Language:

SL-16 DEB - Orbit

View from above orbital plane
View from above orbital plane
View from above satellite
View from above satellite

Ground track
Ground track

The orbit data is extracted from the following two-line orbital elements,

1 39711U 92093KB  21261.37314067  .00000138  00000-0  12019-3 0  9995
2 39711  70.8366 251.8462 0098035 313.7844  45.5188 14.00512271379346
Epoch (UTC): 18 September 2021 08:57:19
Eccentricity: 0.0098035
inclination: 70.8366°
perigee height: 821 km
apogee height: 963 km
right ascension of ascending node: 251.8462°
argument of perigee: 313.7844°
revolutions per day: 14.00512271
mean anomaly at epoch: 45.5188°
orbit number at epoch: 37934

The dashed part of the orbit path shows where the satellite is in the earth's shadow,  

DLR